Starlink 30935

operational
NORAD ID: 58455 Int'l Des: 2023-183 Owner: SPXS Country: US Constellation: starlink
LEOCIRCULAR

Starlink 30935について

説明を読み込み中...

リアルタイム位置

3D地球を読み込み中...

次回通過

高度履歴

Altitude vs Time

uPlot chart will show altitude changes over time

軌道要素

1 58455U 23183U 26034.97952397 -.00000972 00000-0 -56886-4 0 9997
2 58455 43.0031 226.4640 0001342 265.0754 94.9935 15.02542288121643
Epoch: Feb 3, 2026 • Age: 22 hours

現在のステータス

高度 565.1 km
速度 7.58 km/s
衛星直下点 -26.27°S, 20.12°W
打ち上げ日 Nov 28, 2023
運用期間 2.1 years
タイプ internet

技術仕様

分類 Payload
質量 730.00 kg
乾燥質量 700.00 kg
総質量 730.00 kg
長さ 0.30 m
直径 4.10 m
スパン 29.00 m
形状 Box + pan
製造者 SPXS
バスタイプ Starlink V2M
フェーズステータス In Orbit
所有者/国 SPXS/US

大規模コンステレーション

Loading constellations...